Wind_Speed
19 19 19 19 19 19 18 18 18 18 18 18 18 18 18 18 18 18 18 18 18 18 18 18 18 18 18 18 18 19 19 19 19 19 20 19 20 21 21 21 21 22 22 23 23 23 24 25 25 26 26 26 26 27 27 26 27 27 27 26 24 25 27 28 27 25 25 26 26 26 25 24 23 24 24 22 22 23 23 22 25 26 25 26 24 21 20 21
21 21 21 21 21 21 21 21 21 21 21 21 21 21 21 21 21 21 22 22 21 21 21 21 21 21 20 20 20 21 21 22 22 22 22 22 22 22 23 23 23 23 24 24 24 24 25 26 26 26 27 27 27 27 27 27 28 28 28 26 24 26 28 29 29 28 28 27 26 26 26 25 25 26 25 24 24 25 24 24 27 26 26 27 26 23 20 20
24 24 24 24 24 24 24 24 24 24 24 24 24 24 24 24 24 24 25 25 24 24 24 24 24 24 23 23 23 23 23 24 24 24 23 24 24 24 24 24 24 24 25 25 25 24 25 25 26 27 27 27 27 28 27 28 28 28 28 26 24 27 28 28 30 31 30 28 27 27 26 26 27 27 26 26 26 24 24 27 27 26 27 29 28 25 23 21
27 27 27 26 26 27 26 27 27 27 27 27 27 27 27 27 27 27 27 27 27 27 27 26 26 26 25 25 25 25 25 26 25 24 24 25 25 26 25 24 24 24 25 24 24 24 25 25 26 28 28 28 28 29 29 29 30 29 29 27 26 28 27 27 32 32 31 30 28 27 27 26 27 28 27 28 27 23 23 27 28 28 29 29 29 28 26 25
30 30 30 29 29 30 29 30 30 30 30 30 30 30 30 30 30 30 29 30 29 29 29 28 28 27 26 26 25 25 25 26 26 25 26 26 26 26 25 24 23 23 24 24 25 26 27 28 29 29 29 29 30 31 31 33 34 32 30 29 28 29 27 27 32 32 32 31 29 29 28 27 27 28 29 30 29 23 23 28 30 29 30 30 30 30 29 28
33 33 33 32 33 33 33 33 32 33 33 32 33 32 32 32 32 32 31 31 31 30 30 29 28 27 26 26 25 25 25 27 27 26 27 27 26 25 24 24 24 24 26 27 28 30 30 31 31 31 31 31 32 32 34 35 36 34 31 30 30 30 28 26 31 32 32 31 30 31 29 27 28 28 29 30 29 25 24 30 32 30 31 31 31 31 30 29
36 36 36 35 35 35 35 35 35 35 35 35 35 34 34 34 33 33 32 32 31 31 30 29 29 28 27 26 25 24 24 28 29 27 27 28 26 25 25 26 27 28 29 30 31 32 32 33 33 34 34 33 34 34 35 35 36 35 31 30 31 32 29 27 30 31 31 31 31 32 30 27 29 32 30 27 27 26 26 32 34 31 31 31 31 31 30 28
38 38 38 38 38 37 37 37 37 37 37 37 36 36 35 35 34 33 32 32 31 31 30 30 29 29 28 26 25 23 23 29 31 28 28 28 28 28 29 29 31 31 32 32 33 35 35 35 36 38 37 36 36 35 35 36 35 35 32 32 32 32 30 28 30 30 30 30 30 33 31 28 31 37 31 22 23 26 28 32 33 32 30 30 31 31 29 27
39 39 39 39 39 39 38 38 38 38 38 38 37 37 36 35 34 33 33 32 32 31 31 31 29 29 28 26 25 20 22 31 32 30 31 31 31 32 32 33 34 34 35 35 36 37 38 39 40 41 40 39 38 37 38 38 37 35 35 34 33 31 30 30 29 29 30 29 31 34 32 29 33 41 31 20 23 28 30 31 32 34 32 30 31 31 29 26
37 37 37 38 38 37 37 38 38 38 38 37 37 36 35 35 34 33 33 33 33 33 33 32 31 31 29 28 25 20 24 33 32 32 34 34 34 34 34 35 35 36 37 37 39 40 40 41 42 43 44 42 40 39 39 40 40 39 39 37 33 32 30 29 28 28 30 30 32 37 36 33 37 43 34 22 27 32 31 30 30 34 34 32 32 30 30 27
35 35 35 35 35 35 35 35 36 36 36 36 36 36 35 34 34 34 34 34 34 34 35 35 34 33 32 30 27 23 28 34 34 35 37 37 37 36 37 37 37 38 39 40 42 43 43 44 44 45 45 45 42 41 41 41 43 42 42 40 35 35 31 29 28 27 30 32 34 41 43 40 40 42 35 27 31 35 34 31 30 34 34 34 33 31 31 28
35 35 35 35 35 35 34 35 35 35 35 36 36 36 36 35 35 35 35 35 36 36 36 37 37 36 36 33 29 29 32 34 35 38 39 41 40 39 40 40 41 42 42 43 44 44 45 45 46 46 46 46 43 42 42 42 44 44 44 43 38 37 33 29 30 28 30 35 38 44 48 44 39 37 33 30 35 38 38 35 33 34 35 35 34 33 32 29
37 37 37 37 37 36 36 35 36 36 36 36 37 37 37 37 37 37 37 38 38 39 39 40 40 40 40 35 30 32 34 34 36 39 41 43 41 41 41 42 43 45 45 45 45 45 46 46 47 47 46 46 44 43 43 43 46 44 45 46 41 40 35 30 32 31 33 39 41 47 51 46 39 35 31 32 38 41 40 39 36 36 36 36 35 35 34 31
40 40 40 39 39 39 38 38 38 38 38 38 39 39 40 40 40 40 40 41 42 42 42 43 42 42 42 36 31 32 33 34 36 39 41 42 41 41 41 43 44 45 46 46 46 46 46 47 48 48 47 46 45 43 43 45 47 45 46 47 44 44 38 31 34 36 37 40 43 49 55 49 41 36 32 33 39 41 41 41 40 38 37 38 37 37 36 33
43 43 43 43 42 42 42 41 41 41 41 41 42 42 42 43 43 43 43 44 44 45 44 44 44 45 44 37 33 33 34 35 38 39 40 41 41 42 42 44 45 46 46 46 46 46 47 47 48 48 47 45 44 43 43 47 48 44 47 48 45 48 46 38 36 38 39 41 45 51 56 52 43 38 35 36 39 41 41 41 40 39 37 38 39 39 39 36
45 45 45 45 45 45 44 44 44 44 44 44 44 45 45 45 46 46 46 45 46 46 46 46 46 47 46 40 36 35 35 37 39 40 41 41 42 43 43 45 45 46 45 45 45 45 45 47 48 48 47 45 44 42 43 49 48 42 46 50 48 50 51 45 38 36 38 44 48 52 56 54 45 40 39 39 40 40 40 38 38 37 35 36 38 39 40 39
47 47 47 46 46 46 46 46 45 45 46 46 47 47 47 48 48 48 48 48 48 49 49 49 48 49 48 44 40 37 38 40 41 41 41 41 43 43 44 45 45 45 45 44 43 43 44 46 47 48 47 46 43 42 45 50 47 43 46 51 52 52 52 50 43 36 37 44 50 53 57 53 47 45 42 41 41 41 38 36 36 35 34 34 35 37 39 39
48 48 48 48 48 48 48 47 47 47 47 48 48 49 49 50 50 50 50 50 51 51 51 50 50 51 49 46 43 41 42 43 42 42 41 42 43 44 45 46 46 46 46 45 44 43 44 46 47 48 47 45 42 43 47 49 48 48 50 51 53 53 53 52 47 41 41 45 50 54 56 53 49 47 44 40 41 42 37 34 34 33 33 34 35 36 36 37
50 50 50 50 50 50 50 49 49 49 49 49 50 50 50 51 51 52 52 52 52 52 53 52 51 52 51 48 47 47 46 46 45 43 43 43 44 45 45 46 46 47 47 46 45 45 46 48 49 49 46 43 42 44 48 49 48 50 52 52 53 53 53 52 48 46 46 48 51 53 52 52 50 47 44 41 39 41 37 33 33 33 34 36 37 35 33 34
51 52 52 52 52 52 52 51 51 51 51 51 51 51 52 52 53 53 53 54 54 53 54 54 53 53 52 50 51 52 50 49 48 46 44 44 45 45 46 47 47 48 47 47 48 49 49 52 53 49 46 44 45 47 48 48 49 51 52 52 53 52 52 50 49 49 49 52 54 53 50 51 50 47 45 42 39 37 36 36 34 32 35 37 37 34 30 29
53 53 53 53 53 53 54 53 53 53 53 52 52 53 53 54 54 55 55 55 54 54 55 55 56 55 53 53 55 55 54 52 50 48 47 47 47 47 47 48 48 48 48 49 51 52 53 56 54 49 48 48 49 49 48 48 49 50 51 52 51 52 50 49 50 50 49 53 55 53 52 50 49 47 44 42 38 34 34 38 37 33 34 35 35 34 31 29
55 55 55 55 55 55 55 55 55 55 55 54 54 54 55 55 56 57 57 57 54 54 55 56 56 57 55 56 57 56 56 55 52 50 50 50 49 49 49 49 49 49 49 50 51 53 56 58 54 50 50 51 51 50 50 50 49 49 49 51 50 50 50 49 50 50 50 53 53 53 53 50 49 48 44 41 37 33 32 36 38 36 32 31 32 33 33 33
56 56 57 57 57 57 57 57 57 56 56 56 55 56 56 57 57 58 59 60 57 54 55 56 57 58 57 58 58 57 57 56 54 52 52 52 51 50 50 50 50 50 50 49 50 54 57 57 53 51 51 51 51 50 50 50 50 49 48 50 50 49 50 50 49 49 50 51 52 53 52 50 50 49 46 40 34 32 32 34 37 37 33 31 32 33 35 36
55 56 57 57 58 59 59 59 58 58 58 58 57 57 58 58 59 59 60 61 60 56 55 55 56 58 58 58 58 58 57 56 55 54 53 53 52 52 52 52 52 52 50 49 51 53 55 54 51 51 50 50 50 49 48 47 48 47 47 49 49 48 49 50 50 51 51 51 51 52 51 51 51 49 47 40 32 31 33 34 35 36 36 35 35 35 35 36
56 56 57 58 59 60 60 60 60 60 59 59 59 59 59 59 59 60 60 61 61 58 56 55 56 57 57 57 56 56 56 56 55 55 54 54 53 53 53 53 54 52 50 49 51 53 52 50 50 50 49 49 49 48 45 45 47 47 46 47 47 47 49 49 50 52 52 52 52 52 52 51 50 49 46 41 36 34 35 36 36 35 35 36 38 39 38 37
56 55 56 57 58 60 60 61 61 61 61 61 61 61 61 60 60 60 61 61 61 59 59 58 56 55 55 55 55 54 55 54 54 54 54 53 53 54 54 54 54 53 51 50 52 53 50 47 47 49 48 49 48 46 44 45 48 48 46 46 46 47 48 49 50 52 52 53 53 53 54 52 49 48 45 44 43 42 43 43 41 41 38 36 39 40 41 41
54 54 53 54 55 56 57 58 58 59 59 60 61 62 63 62 62 61 60 62 61 60 61 61 59 56 54 54 54 53 53 53 54 54 53 53 54 55 55 55 55 55 55 55 55 54 50 47 47 47 48 49 47 44 44 46 49 48 47 47 48 48 49 50 51 53 54 54 54 54 56 55 51 47 47 47 47 49 51 51 50 50 47 44 43 42 44 46
53 53 53 53 53 52 53 53 54 55 55 55 55 56 58 60 62 61 60 61 61 61 63 62 59 56 54 53 53 51 52 52 53 54 54 55 55 55 56 56 56 56 56 57 57 54 51 50 49 47 48 48 45 45 46 47 47 47 47 48 49 50 50 51 52 54 56 56 55 55 57 59 53 49 50 50 50 54 56 56 58 59 57 55 55 53 52 53
48 49 51 52 51 50 50 50 51 52 52 51 50 50 49 50 53 54 56 61 62 62 62 59 56 55 53 51 49 48 49 49 50 52 52 54 55 55 55 55 55 56 56 57 57 54 51 51 50 50 49 48 46 47 47 46 47 47 48 49 50 52 52 53 54 55 57 58 57 56 58 60 54 49 51 51 52 57 58 57 61 64 64 63 63 63 62 60
43 43 44 46 47 47 47 47 48 49 48 47 46 46 45 44 43 43 50 58 60 58 56 54 54 52 50 49 49 50 50 50 50 51 52 53 53 54 54 54 55 56 56 57 57 54 52 53 53 51 51 50 50 50 48 47 47 47 49 51 53 54 55 56 58 58 60 61 59 57 58 61 57 51 52 54 55 59 60 60 62 65 68 67 67 67 67 65
45 44 43 43 43 44 46 47 48 47 48 48 47 47 47 46 43 43 50 55 54 52 51 52 53 51 52 54 55 55 54 53 52 52 51 51 51 51 51 51 53 55 56 57 57 57 56 56 55 53 52 52 52 53 51 49 48 49 51 52 54 56 57 60 62 62 64 63 60 59 59 61 60 56 56 59 60 62 63 64 65 66 67 67 67 68 69 68
48 48 47 46 45 46 47 49 50 50 51 52 52 50 50 50 49 49 52 52 52 53 52 53 55 56 58 59 59 58 57 56 55 54 54 54 53 52 51 51 52 53 55 57 58 59 60 59 58 56 54 54 55 56 55 53 53 53 54 54 55 58 59 62 64 63 64 64 63 63 64 66 64 60 60 62 62 63 64 65 66 65 66 67 66 66 67 69
50 50 50 50 50 49 50 51 52 53 54 54 54 53 53 54 53 53 53 52 54 56 55 56 59 61 62 62 61 61 61 60 60 59 59 58 58 57 55 54 53 54 56 57 58 60 61 61 60 59 58 57 57 56 55 56 58 57 57 56 56 58 60 63 64 63 64 65 65 66 69 72 71 65 64 65 62 62 62 62 63 64 65 66 66 66 67 69
54 54 54 55 55 55 54 54 54 54 55 56 56 56 57 58 57 58 59 57 57 57 57 59 60 61 62 62 62 62 62 63 63 62 61 60 60 59 59 58 57 58 59 60 62 63 63 63 61 62 62 61 60 59 59 60 61 61 60 58 59 60 60 61 60 61 65 67 68 70 73 76 75 70 67 66 64 63 60 58 58 61 63 65 65 65 64 64
55 54 54 55 55 56 56 56 57 57 57 58 59 61 63 62 61 63 64 65 65 65 63 63 62 62 62 61 62 63 64 65 66 64 63 63 63 63 63 62 61 61 60 62 65 66 68 69 67 66 68 66 65 65 66 66 66 66 65 64 64 61 56 56 58 60 63 66 68 71 75 78 77 73 71 68 66 63 58 55 54 56 60 62 62 61 59 59
56 55 54 54 53 54 54 55 56 57 58 58 61 64 66 64 64 65 66 67 67 67 66 65 64 64 64 65 65 65 65 66 67 67 68 68 68 68 67 66 66 65 63 64 66 67 70 73 71 71 73 72 72 73 73 73 72 72 71 69 66 62 58 58 61 61 60 63 65 63 66 69 70 74 74 71 68 64 58 56 54 54 58 60 60 59 57 57
58 59 58 57 55 54 55 55 55 56 57 59 62 66 67 66 65 65 65 65 65 64 64 65 65 66 67 68 67 66 66 67 68 69 69 70 72 72 70 69 68 67 67 66 67 69 72 73 73 73 74 74 75 75 76 76 75 73 71 67 64 64 63 61 62 63 61 66 69 65 66 67 67 73 75 70 68 64 59 58 57 57 59 60 61 59 57 56
61 61 61 59 57 57 57 57 57 57 58 61 64 68 68 66 65 64 64 64 64 64 65 66 67 68 68 68 68 68 68 70 71 71 71 72 73 74 73 72 71 70 69 69 71 73 73 71 71 73 74 75 75 74 75 77 76 72 69 65 62 60 59 58 60 62 62 67 72 72 73 73 72 72 70 67 66 64 62 61 61 62 62 60 59 58 57 57
62 63 62 61 60 60 60 60 59 59 61 64 66 68 68 66 65 64 65 65 66 67 67 68 68 69 69 69 69 69 70 71 72 72 72 72 73 73 73 73 73 72 71 71 71 71 68 66 69 73 74 76 77 78 78 76 73 70 67 64 60 57 57 59 62 65 67 72 75 76 76 76 74 71 67 66 64 61 62 63 63 63 61 58 57 58 59 59
63 63 63 63 63 62 62 62 63 64 66 68 67 68 68 67 65 65 66 67 68 68 69 69 69 70 71 71 70 71 72 73 73 73 73 73 73 72 73 73 72 70 70 70 70 69 68 69 73 75 74 76 79 79 76 71 68 67 66 64 63 64 65 67 69 69 70 74 76 76 77 74 68 65 62 62 60 58 59 61 61 59 57 57 60 61 61 61
67 66 65 65 65 65 65 66 67 67 68 69 69 68 68 67 67 67 68 69 69 69 69 70 70 71 72 72 72 72 72 73 73 73 74 74 74 74 73 72 71 69 69 70 70 70 70 71 73 73 74 76 77 74 71 69 68 68 69 69 69 69 68 69 72 71 69 72 72 71 72 68 60 57 57 57 56 55 55 56 59 60 59 60 60 62 64 63
71 71 69 69 68 68 69 69 69 70 71 70 69 68 68 68 69 69 70 71 72 72 72 72 72 71 71 70 70 69 70 72 72 72 73 73 73 72 71 70 69 69 69 69 70 70 70 71 73 75 75 73 71 69 70 71 71 70 71 71 70 68 67 69 71 70 67 67 65 64 67 66 60 56 56 54 52 52 55 57 60 63 64 62 59 60 63 64
73 73 73 73 72 72 72 72 72 72 72 71 69 69 70 71 71 71 72 73 74 73 73 72 71 71 70 68 68 68 68 71 72 72 72 72 72 71 69 68 68 68 68 70 70 70 69 70 72 73 74 73 72 69 68 69 69 69 69 68 67 68 67 67 66 64 63 61 59 61 67 68 63 58 57 55 52 53 57 61 63 65 65 64 63 62 63 65
71 71 72 72 73 73 73 73 72 72 71 70 70 70 70 71 71 71 70 71 71 71 71 71 70 70 69 69 68 69 69 72 73 72 71 72 72 71 69 69 69 69 69 70 71 71 71 71 70 71 73 75 73 70 69 68 68 70 70 68 67 65 63 62 60 59 60 61 60 64 69 67 63 59 57 56 55 56 58 61 62 64 65 66 66 65 65 66
66 66 66 67 68 69 70 70 70 70 70 69 69 69 68 69 69 67 67 68 69 69 70 70 70 70 70 70 70 71 71 72 74 73 72 73 73 73 72 72 72 72 71 71 71 70 71 71 70 70 71 72 73 72 71 68 66 67 68 67 64 62 62 63 63 63 65 67 66 68 70 69 66 63 63 62 60 60 61 63 64 64 66 67 67 67 68 69
65 64 64 64 64 65 66 65 66 67 66 66 67 67 66 67 66 65 66 68 69 69 70 70 70 70 71 71 71 73 72 72 73 74 74 74 75 75 74 73 73 73 73 72 71 70 70 71 70 69 70 70 70 70 66 61 60 63 64 64 65 65 65 65 66 68 71 73 74 73 74 75 72 70 70 67 63 61 60 61 62 63 65 66 66 67 67 69
65 65 65 64 65 65 65 64 64 64 64 64 66 66 65 65 65 65 66 67 67 68 69 70 70 70 71 71 71 73 73 72 73 74 74 75 75 74 74 73 73 73 72 72 72 72 72 74 73 72 72 70 70 71 70 68 70 71 70 70 71 70 69 68 70 73 75 77 79 78 77 77 74 71 70 67 65 63 60 59 60 60 61 62 64 65 67 68
66 66 66 66 66 66 66 65 65 65 65 65 67 67 66 66 66 65 64 65 65 65 67 69 68 68 69 69 71 73 73 72 73 73 73 74 74 73 73 73 73 73 72 72 73 73 74 76 75 74 74 73 73 74 74 75 76 76 75 75 74 73 73 74 76 76 75 75 76 74 71 72 73 72 70 69 68 68 66 65 65 65 66 67 67 68 70 71
66 66 66 67 67 66 67 67 67 67 67 67 67 68 68 68 67 65 64 65 67 66 66 68 68 67 67 68 70 72 72 72 73 72 71 73 73 73 73 72 72 72 72 72 72 72 74 76 75 75 75 75 73 73 73 73 74 75 75 75 75 75 75 75 76 73 71 70 70 68 68 70 75 76 75 74 75 75 74 74 74 75 74 74 74 73 72 74
66 66 66 67 67 67 67 67 67 68 68 67 68 69 68 68 67 66 66 68 69 69 68 70 69 68 68 68 70 72 72 71 72 72 71 72 72 73 73 72 71 71 71 71 70 70 72 74 74 73 74 75 74 72 72 72 73 75 76 76 75 76 76 75 73 71 71 72 71 71 72 75 78 79 78 78 79 79 79 79 78 78 78 77 77 77 76 76
66 66 66 66 67 66 66 67 67 67 68 67 68 68 67 67 68 68 68 69 70 70 70 71 71 70 70 70 70 71 71 71 71 71 71 71 72 72 72 71 70 70 71 70 69 69 70 72 72 71 73 75 74 73 73 73 74 76 77 76 74 73 73 71 70 70 72 73 74 75 76 78 80 81 80 80 80 80 81 81 80 80 80 80 80 81 81 81
65 66 66 66 66 65 65 66 66 66 67 66 66 67 66 67 67 67 68 69 70 70 70 70 71 72 72 72 72 73 73 72 71 70 71 71 71 71 71 71 71 71 71 70 70 70 70 71 71 71 74 76 74 72 71 71 74 77 76 73 70 69 68 68 69 71 73 76 78 80 81 82 83 83 83 83 83 83 83 83 83 82 82 82 82 82 82 83
Wind_Direction
252 253 253 255 258 262 265 267 270 272 274 276 277 279 280 281 282 282 282 282 282 282 281 281 281 282 282 283 284 286 287 287 288 288 289 291 292 293 294 294 296 297 298 299 300 301 301 301 301 301 302 301 302 302 302 302 301 301 301 304 307 302 297 299 300 297 293 292 296 296 293 294 292 289 292 294 293 290 286 282 282 286 289 291 292 291 289 290
254 255 256 257 260 262 265 268 271 273 275 277 278 280 281 283 283 283 283 283 283 283 282 281 281 281 281 281 282 283 284 285 285 285 287 288 288 289 290 292 294 295 297 297 298 299 300 300 301 301 301 301 301 300 300 300 299 299 300 304 304 295 295 299 296 292 292 293 293 292 291 292 289 287 290 291 288 288 285 279 281 284 285 287 288 290 287 284
257 258 259 260 261 263 266 268 270 272 274 276 277 279 281 282 283 284 284 284 284 283 283 282 281 281 280 280 280 281 282 282 282 283 284 285 285 287 288 291 292 293 294 295 296 297 298 299 301 301 301 302 301 299 300 299 297 299 302 305 299 292 296 297 292 292 293 293 292 290 289 289 287 288 289 288 286 286 283 278 280 282 283 285 288 290 287 280
259 260 261 262 264 265 267 269 270 271 273 274 276 278 279 281 282 283 283 283 283 283 282 281 280 280 280 280 279 280 280 280 281 283 283 283 284 285 287 289 290 291 292 292 294 295 296 298 300 300 300 300 298 298 299 297 296 300 304 304 298 294 297 294 291 293 294 293 293 289 287 287 287 288 288 286 285 285 282 280 280 282 283 284 286 287 285 280
260 261 262 264 265 266 267 269 270 271 272 274 275 277 278 279 281 281 282 282 282 282 281 280 280 279 279 279 279 280 281 281 282 283 283 283 283 285 286 287 288 290 291 293 294 295 297 298 298 297 297 295 295 297 297 296 297 300 302 301 297 294 296 295 290 292 294 294 294 289 287 286 286 286 284 284 286 285 281 280 279 281 283 283 284 285 284 281
262 262 263 264 265 266 267 269 270 271 272 274 275 276 278 279 280 280 281 281 281 280 280 279 279 279 278 279 280 281 283 284 282 282 282 283 283 284 286 287 288 289 291 293 295 296 297 297 297 295 292 292 293 295 296 297 299 301 301 299 295 292 296 295 289 291 293 294 294 290 288 288 286 281 280 286 288 287 284 280 279 280 281 282 283 284 283 283
264 264 264 264 265 266 267 269 270 271 272 273 274 276 277 278 278 278 278 278 278 277 277 277 277 278 278 279 280 281 285 284 280 280 281 282 284 285 285 287 288 290 291 293 295 295 296 296 295 292 290 291 292 295 297 298 299 301 302 298 293 293 298 294 290 292 293 294 293 290 290 290 287 281 283 294 294 290 285 279 280 281 280 282 283 282 282 283
264 265 265 265 266 267 268 269 269 270 271 272 273 274 275 276 276 276 276 275 275 275 276 276 277 277 277 278 278 282 285 280 279 281 281 282 285 286 286 288 289 291 292 294 295 295 296 295 293 292 292 291 292 295 296 296 298 300 301 297 296 298 298 294 293 295 293 294 291 288 290 289 285 284 293 311 302 291 283 278 281 281 280 281 281 281 282 283
264 265 265 266 266 267 268 269 269 270 271 271 272 272 273 273 274 274 274 274 274 275 275 275 277 277 277 278 278 284 283 277 279 283 284 284 285 286 287 289 290 291 292 293 293 293 294 293 292 292 292 291 292 293 294 295 297 298 297 297 300 299 297 296 296 296 294 292 289 287 286 284 283 287 302 321 300 288 282 281 282 281 281 281 280 281 283 284
264 265 265 266 266 267 267 268 268 269 269 270 270 270 270 270 271 271 272 272 273 274 275 275 276 276 277 278 279 285 280 277 283 286 285 286 286 286 287 288 290 290 290 291 291 290 290 290 291 290 290 290 290 291 291 294 296 296 295 296 298 298 298 299 298 296 292 289 287 285 282 280 282 290 305 314 292 286 284 284 283 281 282 281 279 280 282 285
264 265 265 266 266 266 266 267 267 268 268 268 268 268 268 268 268 269 270 271 272 274 275 276 276 276 277 278 281 283 278 279 285 285 285 285 285 286 287 287 288 287 288 288 288 288 288 288 288 288 288 288 289 289 289 291 293 293 293 293 296 296 297 301 300 296 290 287 285 283 282 282 285 295 308 306 290 285 284 282 280 280 280 279 279 279 280 283
264 265 265 266 266 266 266 266 267 267 267 268 268 268 268 268 268 269 270 271 272 273 275 276 276 277 277 278 282 281 278 280 283 283 283 283 284 285 286 286 286 285 285 285 285 286 286 286 286 286 287 287 288 288 288 289 289 290 290 291 292 292 294 299 297 293 288 287 287 286 287 288 292 300 307 301 290 286 284 282 280 278 277 277 277 278 279 281
265 265 266 266 266 266 266 266 266 267 267 267 268 268 268 269 269 269 270 271 272 274 275 276 277 277 277 278 280 279 278 279 279 279 280 281 283 285 285 285 284 284 283 283 283 283 284 284 284 285 285 286 287 287 288 287 286 287 288 289 290 289 291 294 290 287 286 287 291 291 290 293 297 300 301 297 290 288 287 285 281 278 278 278 278 278 279 281
266 267 267 267 267 267 267 267 267 267 268 268 269 269 270 270 271 271 272 273 274 274 275 276 276 277 277 278 277 276 277 277 276 276 277 280 283 284 285 285 284 283 282 282 282 282 282 283 283 283 284 285 286 287 288 286 284 286 287 288 290 288 286 284 281 282 285 289 293 292 290 292 294 295 297 293 289 288 288 286 283 282 282 282 282 282 281 282
267 267 267 268 268 268 268 268 268 268 268 268 269 269 270 271 271 272 272 273 274 274 275 275 275 276 275 276 275 273 273 273 274 275 277 281 283 285 286 286 285 284 282 282 281 281 281 282 282 282 283 283 285 286 287 284 283 287 288 288 288 286 283 278 276 282 289 291 290 289 288 289 292 294 295 291 289 288 287 287 288 288 287 285 285 284 283 282
267 267 267 268 268 268 269 269 269 269 269 269 269 270 270 271 271 272 272 273 273 274 274 274 275 275 275 275 273 273 272 271 272 275 278 282 284 286 287 286 286 285 284 283 282 281 281 281 281 281 282 283 284 286 285 282 284 288 288 286 284 282 282 281 280 284 290 290 287 286 286 288 291 294 293 290 289 287 288 291 293 293 291 287 285 282 280 279
267 267 267 268 268 268 269 269 269 269 269 269 270 270 271 271 272 272 272 273 273 274 274 274 275 275 276 276 275 274 273 272 273 275 279 282 284 285 285 285 285 285 284 284 283 283 282 281 281 281 282 283 285 287 284 282 285 286 281 281 281 281 283 284 285 286 287 285 285 284 284 286 291 292 290 289 290 289 291 294 294 294 292 288 285 283 282 282
268 268 268 268 268 268 268 268 268 269 269 270 270 270 271 271 272 272 273 273 273 274 274 275 275 275 276 277 277 275 273 273 274 276 280 283 284 283 283 282 283 283 283 282 283 283 282 282 282 282 283 286 289 287 283 282 283 281 278 278 280 282 283 284 288 289 285 282 282 282 283 286 288 288 288 290 292 292 293 296 296 293 290 287 285 285 287 288
269 269 269 269 268 268 268 268 268 268 269 269 270 270 271 271 272 272 273 273 273 274 275 275 275 275 276 277 276 275 274 274 276 278 282 284 284 282 281 280 280 281 281 281 281 280 280 281 281 283 287 292 291 285 281 280 280 279 279 279 280 281 283 285 289 289 287 284 280 280 283 285 286 288 290 292 292 293 296 297 294 291 288 286 287 288 290 291
269 269 269 269 269 269 269 269 269 269 269 269 269 270 270 271 271 272 272 273 273 274 275 276 275 275 276 277 276 275 275 276 278 281 284 284 283 281 280 280 280 280 280 280 279 278 279 279 280 285 291 290 285 280 279 280 279 278 279 279 280 282 284 286 287 286 287 285 282 282 284 285 288 290 291 293 292 294 298 297 291 289 287 287 290 293 291 289
268 268 268 268 268 268 268 268 268 269 269 269 269 270 270 270 271 271 271 271 273 274 275 275 276 276 277 277 276 276 277 277 280 282 284 284 282 281 281 281 280 280 280 279 277 278 279 278 281 288 289 284 280 280 280 280 279 278 279 280 281 283 284 285 284 284 285 283 284 287 288 287 289 290 291 292 293 296 297 294 292 289 288 290 294 294 291 288
268 268 268 268 268 268 268 268 268 269 269 269 269 270 271 271 271 272 271 271 271 272 274 274 275 276 276 276 275 276 277 279 282 283 283 283 282 282 281 281 281 281 279 278 278 279 277 278 284 287 284 281 281 280 279 278 278 279 280 281 281 282 283 282 282 283 282 282 285 289 288 288 289 289 290 291 294 298 296 292 291 290 290 292 293 293 291 291
267 267 268 268 268 268 268 268 269 269 269 270 270 271 271 272 272 273 273 273 272 271 272 274 275 276 276 276 276 278 279 281 283 282 282 281 281 281 280 280 280 279 279 280 280 278 277 280 284 285 283 282 281 279 277 276 278 280 280 280 280 282 283 282 282 282 281 282 285 286 286 286 287 288 288 290 295 297 294 289 288 291 293 291 289 288 289 291
266 267 268 268 268 267 267 268 268 269 269 270 270 270 271 272 272 273 274 274 274 273 273 273 274 275 275 276 278 280 281 283 283 282 282 281 281 280 279 279 279 278 279 280 279 278 279 282 285 284 283 282 280 278 278 277 278 279 278 278 280 281 282 282 283 283 282 283 283 285 284 283 285 286 287 292 297 294 291 288 288 291 293 290 286 282 281 286
267 267 268 268 268 267 267 267 267 268 268 269 269 270 270 270 271 272 273 274 274 275 274 273 272 273 274 276 279 280 282 282 283 283 283 283 283 282 281 280 279 279 279 278 277 277 278 282 284 283 282 280 278 277 278 279 278 277 277 279 280 281 280 281 282 282 282 283 284 284 283 282 282 284 288 295 298 295 292 290 290 291 290 288 286 284 283 282
266 267 268 268 267 267 266 267 267 267 268 268 269 269 269 270 271 271 272 274 274 275 274 272 271 272 274 277 278 280 281 281 282 282 283 283 283 282 282 282 281 280 278 277 276 277 278 280 280 279 278 276 275 277 279 279 277 276 278 280 279 279 279 280 280 280 281 282 284 284 283 282 280 282 289 294 296 295 293 292 294 293 290 286 285 287 288 285
265 266 267 267 267 267 267 267 268 268 269 269 269 269 269 270 270 271 271 272 272 273 273 273 273 274 276 277 278 279 280 281 281 281 282 282 281 281 281 281 281 280 279 277 277 278 278 276 274 273 272 271 273 277 278 277 277 277 279 279 279 279 279 279 279 279 279 279 280 281 282 283 282 283 289 292 295 296 295 297 300 298 295 295 293 292 291 289
265 265 267 268 269 270 271 271 271 271 271 271 272 272 271 270 269 269 270 270 270 270 271 273 275 276 277 278 278 278 279 279 280 280 280 280 280 279 279 280 280 280 278 277 276 277 276 273 273 270 268 268 271 274 275 276 278 278 278 278 279 280 280 280 279 278 277 276 276 276 281 284 281 280 287 290 292 294 295 300 301 299 300 302 302 300 295 293
265 266 267 269 271 272 273 273 273 273 273 272 273 275 276 275 272 269 267 267 268 269 271 274 276 277 278 279 280 280 280 279 279 279 278 279 279 279 279 279 279 279 278 277 275 275 273 272 271 268 266 267 268 269 271 274 276 277 278 278 279 280 280 280 278 277 277 274 273 275 281 285 279 273 280 284 286 290 294 299 300 301 303 302 301 300 298 296
266 267 268 270 271 272 272 272 271 272 272 271 272 274 276 276 275 270 265 263 266 268 270 274 276 277 280 282 284 283 282 282 281 279 278 278 278 278 278 278 278 278 278 277 276 274 272 271 270 268 267 266 266 268 269 271 273 275 276 276 277 278 278 278 276 277 277 273 272 276 281 283 277 270 275 279 282 288 293 298 300 300 300 300 300 299 298 296
268 268 268 269 269 268 268 269 269 269 270 272 273 274 273 273 273 269 265 264 267 269 271 274 277 279 282 284 286 285 285 284 283 281 280 280 279 279 278 278 278 277 277 277 276 274 272 271 270 269 267 266 267 268 269 271 274 276 276 276 277 277 276 277 275 275 276 274 274 277 279 279 273 268 273 278 283 289 293 295 295 295 295 296 297 297 297 297
268 268 268 268 267 267 267 268 270 270 271 272 273 272 271 271 269 267 268 269 271 272 273 275 278 280 283 285 286 285 285 284 283 282 281 280 280 280 279 278 278 278 277 276 275 274 272 271 271 271 269 269 269 269 271 274 276 277 278 279 279 278 278 277 276 277 278 277 276 278 278 275 269 265 270 276 281 287 290 290 289 290 290 291 291 292 293 294
267 268 269 269 269 269 269 270 271 271 271 270 270 269 268 268 267 268 270 271 272 274 275 277 278 280 282 284 285 285 284 283 282 282 281 281 282 282 281 281 280 280 280 278 277 275 273 271 271 273 273 272 273 277 279 279 279 280 282 283 283 283 282 281 283 285 284 281 279 278 277 274 268 265 269 274 278 282 283 285 287 289 289 288 288 288 288 289
269 269 269 270 270 270 271 271 271 271 269 268 268 267 266 269 272 271 270 270 271 273 274 275 277 279 280 281 282 283 283 282 282 282 282 282 282 283 283 283 283 283 283 282 280 279 277 273 271 273 275 273 275 281 282 282 280 281 282 284 284 285 287 288 289 289 287 285 282 280 277 274 271 269 271 275 278 280 282 285 288 290 290 289 289 288 288 289
270 269 269 270 271 271 271 270 270 270 269 268 268 266 267 272 275 272 270 270 271 272 273 273 274 275 276 277 278 280 280 280 280 280 280 280 280 281 281 282 282 283 282 282 283 282 280 278 275 276 277 277 277 279 280 281 281 281 281 282 284 286 288 287 286 285 286 284 281 280 278 277 277 274 273 276 279 282 286 290 290 289 287 287 288 289 290 289
271 271 271 272 271 271 270 270 270 269 269 268 267 267 270 273 272 271 271 272 273 274 274 273 273 273 274 274 274 276 276 276 277 277 278 279 279 279 279 279 280 280 281 282 283 282 280 279 277 278 280 280 279 278 278 280 281 281 280 280 283 286 286 285 283 281 279 275 273 274 276 279 281 280 278 280 283 286 289 290 288 284 282 283 284 286 287 286
272 273 273 274 273 272 272 271 270 270 270 269 267 270 274 274 272 271 272 272 273 274 275 275 274 273 272 272 271 272 273 274 275 276 277 278 279 279 279 279 279 279 280 282 283 282 281 281 279 277 279 279 279 279 279 280 281 281 281 283 284 285 284 283 281 279 275 272 271 269 269 272 274 278 282 284 284 287 288 286 283 279 278 280 282 283 282 280
271 272 272 274 274 274 273 273 272 271 271 270 270 273 275 274 274 273 272 273 275 275 276 276 275 274 274 273 273 273 274 276 277 278 278 279 279 279 279 279 279 279 280 282 283 284 285 285 281 277 278 280 280 280 281 281 283 284 285 286 285 283 281 280 278 278 276 275 275 275 274 274 273 276 280 279 279 282 282 280 279 277 276 277 277 276 275 274
270 270 271 272 273 273 274 274 273 272 271 270 272 275 276 275 275 274 274 275 277 277 277 278 278 278 277 277 277 277 277 277 278 279 279 280 280 280 281 281 281 282 283 283 284 284 284 284 281 279 279 280 281 281 281 283 284 285 285 283 280 278 277 276 275 275 276 278 279 281 281 281 281 282 282 280 278 277 276 275 274 273 273 271 269 268 268 269
270 270 270 271 272 273 274 273 273 272 272 273 274 275 276 276 276 276 278 278 278 279 279 279 279 279 279 279 279 279 278 278 278 278 278 279 279 280 280 282 284 285 285 284 284 283 282 282 282 282 281 279 280 281 283 284 284 282 281 279 278 278 277 276 275 275 277 279 280 281 282 284 286 287 285 282 280 278 275 273 270 269 268 267 266 266 266 268
271 271 271 271 272 272 272 272 272 273 274 275 275 276 277 278 278 277 278 279 279 280 279 279 279 279 280 279 279 279 278 277 277 277 277 277 278 279 279 281 283 283 283 283 282 282 282 282 282 283 282 281 281 283 284 283 281 279 278 277 278 279 278 277 277 278 279 279 280 282 282 283 284 284 283 281 279 278 274 269 267 267 267 267 267 267 267 268
272 273 273 272 273 273 272 272 273 273 274 275 277 278 278 278 278 277 278 279 279 279 279 280 280 279 279 278 278 277 276 275 275 275 276 276 277 278 279 279 280 280 281 281 281 281 282 281 281 282 284 284 282 282 281 281 280 278 277 277 278 278 277 278 279 281 281 279 279 279 279 280 281 281 281 279 275 271 268 267 268 269 268 268 266 264 265 266
273 274 274 274 274 274 274 274 275 275 276 277 278 277 277 277 277 278 279 279 279 279 279 279 279 278 277 277 276 275 275 275 275 274 275 275 275 276 277 277 277 278 279 280 280 281 281 280 281 282 283 283 282 281 280 279 279 277 276 276 276 276 277 278 279 280 279 277 276 276 276 279 281 281 278 275 271 268 268 270 271 271 271 271 268 265 264 264
274 274 274 274 274 274 275 276 277 277 277 277 276 276 276 276 277 278 278 277 277 277 277 277 276 276 275 275 275 274 274 275 275 275 275 276 276 277 277 277 277 278 278 278 278 279 279 278 279 280 280 280 280 280 279 278 277 276 275 275 274 274 275 274 273 272 270 270 272 273 274 275 278 278 276 273 272 270 270 271 271 271 271 270 269 268 265 264
276 275 275 275 274 274 275 276 276 276 276 276 276 276 275 275 276 277 275 274 274 275 275 274 274 274 274 274 274 274 274 274 276 276 275 276 277 277 277 277 277 278 277 277 278 278 277 276 276 276 276 277 278 278 278 279 277 275 275 274 273 272 272 271 270 268 267 269 270 270 271 273 273 273 272 272 272 273 273 272 272 271 270 269 268 268 266 265
277 277 277 276 276 276 277 277 276 276 276 275 275 274 274 275 275 274 273 273 274 273 273 272 273 273 273 273 273 273 273 273 274 275 275 275 276 276 277 276 276 276 276 276 276 275 274 274 273 273 273 275 276 276 277 276 274 272 272 272 272 273 273 271 269 268 270 272 270 269 272 274 273 271 271 272 273 273 272 271 270 269 269 268 268 267 266 264
276 277 277 276 276 278 279 279 278 277 277 276 275 275 275 275 274 273 273 273 272 271 270 270 271 271 272 272 272 272 271 271 272 273 274 275 275 275 275 275 275 274 274 274 274 273 273 272 272 272 272 272 273 273 273 272 271 271 270 270 271 271 270 268 268 270 272 271 271 272 273 274 273 273 273 272 272 270 268 268 268 268 268 268 267 266 266 265
276 277 277 277 277 278 278 278 278 278 277 277 277 277 278 277 277 277 276 274 272 271 271 270 271 271 272 273 272 272 272 272 271 272 273 273 274 273 273 273 274 274 274 273 273 272 272 271 271 271 271 270 270 271 272 272 272 272 271 271 270 269 268 269 270 271 271 270 271 273 273 273 273 273 272 272 270 268 267 268 268 268 269 269 268 267 267 266
277 277 277 277 277 278 278 278 277 278 278 278 279 279 280 280 280 280 278 276 275 274 274 273 273 273 273 272 272 272 273 273 273 273 273 273 273 273 273 273 273 273 273 273 272 272 272 271 271 271 271 271 271 271 272 271 271 271 270 270 270 270 270 271 271 270 269 268 270 272 272 273 274 274 274 274 273 272 272 272 272 271 270 270 269 268 268 268
277 277 277 277 278 278 278 278 278 278 278 278 279 280 281 280 280 279 279 278 278 278 277 277 277 276 274 273 272 272 273 273 274 274 273 273 273 273 273 273 273 273 272 272 271 271 271 272 272 273 272 272 271 272 272 272 271 271 270 270 271 272 273 271 270 269 268 268 269 270 273 275 276 276 277 276 276 276 276 275 274 274 272 271 270 268 267 267
275 275 276 276 276 277 277 277 277 277 277 278 279 279 279 278 278 278 278 277 278 278 278 278 278 278 276 275 275 274 274 273 273 273 272 272 272 272 272 272 272 271 271 271 271 271 271 273 273 273 273 272 273 273 273 273 272 271 270 272 273 274 273 271 269 268 268 268 270 271 273 275 276 277 278 278 278 278 277 277 276 275 274 273 271 269 267 265
274 275 275 275 275 275 276 276 276 276 277 278 278 278 278 279 279 279 278 278 278 278 278 279 279 278 277 276 276 275 274 273 272 271 271 270 270 270 270 270 270 270 270 270 270 269 270 272 273 273 273 273 273 274 274 273 271 270 272 274 274 273 271 269 269 269 270 271 273 274 274 275 276 277 278 279 279 279 279 278 277 276 275 274 272 271 268 266
Height
5875 5876 5876 5876 5877 5877 5877 5877 5877 5877 5878 5877 5878 5877 5877 5877 5877 5877 5876 5876 5876 5876 5875 5875 5875 5875 5875 5875 5875 5874 5874 5874 5874 5874 5873 5873 5873 5872 5872 5872 5871 5871 5871 5870 5870 5869 5868 5867 5867 5866 5866 5865 5864 5863 5863 5863 5862 5861 5861 5861 5861 5859 5858 5857 5857 5857 5856 5856 5855 5855 5854 5855 5855 5853 5854 5855 5854 5853 5853 5852 5851 5851 5850 5850 5850 5850 5850 5849
5873 5873 5874 5874 5875 5875 5875 5876 5876 5876 5876 5876 5876 5876 5876 5876 5875 5875 5875 5874 5874 5874 5874 5874 5873 5873 5873 5873 5873 5873 5872 5872 5871 5872 5871 5871 5871 5870 5870 5869 5869 5869 5868 5868 5868 5867 5866 5865 5864 5864 5863 5862 5862 5861 5861 5860 5859 5859 5858 5859 5859 5856 5856 5855 5853 5853 5853 5854 5853 5852 5852 5852 5852 5851 5851 5852 5851 5850 5850 5848 5848 5848 5848 5846 5847 5847 5848 5847
5871 5871 5872 5872 5873 5873 5873 5874 5874 5874 5874 5874 5874 5874 5874 5873 5873 5873 5873 5872 5872 5872 5872 5872 5871 5871 5871 5871 5871 5871 5870 5869 5869 5869 5869 5869 5868 5868 5868 5867 5867 5867 5866 5865 5865 5865 5864 5863 5862 5861 5861 5860 5859 5859 5858 5858 5857 5857 5857 5857 5857 5854 5854 5853 5850 5849 5850 5850 5851 5850 5849 5849 5848 5848 5848 5848 5848 5849 5847 5844 5845 5845 5844 5843 5843 5844 5845 5844
5869 5869 5869 5870 5870 5870 5871 5871 5871 5871 5871 5871 5871 5872 5871 5871 5871 5871 5871 5870 5870 5870 5870 5869 5869 5869 5869 5869 5869 5869 5868 5867 5866 5867 5867 5866 5866 5865 5866 5865 5865 5865 5864 5863 5863 5862 5862 5861 5860 5859 5858 5857 5856 5856 5855 5854 5853 5855 5855 5854 5853 5851 5852 5850 5846 5846 5846 5846 5848 5847 5846 5846 5845 5844 5845 5844 5844 5847 5844 5840 5841 5842 5841 5841 5840 5841 5841 5841
5866 5866 5867 5867 5867 5867 5868 5868 5868 5868 5868 5869 5869 5869 5869 5869 5869 5868 5868 5868 5868 5867 5867 5867 5867 5867 5867 5867 5867 5867 5866 5865 5864 5865 5864 5864 5863 5863 5863 5863 5863 5862 5862 5861 5860 5860 5859 5859 5858 5856 5856 5855 5854 5853 5852 5850 5850 5852 5853 5851 5850 5848 5849 5848 5843 5842 5842 5842 5843 5842 5842 5843 5842 5842 5841 5840 5840 5843 5842 5837 5837 5838 5837 5837 5837 5837 5837 5836
5863 5863 5864 5864 5864 5864 5865 5865 5865 5865 5865 5865 5866 5866 5866 5866 5866 5866 5866 5865 5865 5864 5864 5864 5864 5865 5865 5865 5865 5865 5865 5862 5861 5862 5861 5860 5861 5861 5861 5860 5860 5860 5859 5859 5858 5857 5857 5856 5855 5853 5852 5852 5851 5850 5849 5847 5847 5848 5850 5849 5846 5845 5847 5846 5841 5840 5839 5839 5839 5837 5838 5839 5838 5838 5838 5837 5837 5839 5838 5833 5832 5834 5834 5833 5834 5833 5833 5833
5860 5860 5861 5861 5861 5861 5862 5862 5862 5862 5862 5862 5862 5863 5863 5863 5863 5863 5863 5862 5862 5861 5862 5861 5861 5862 5862 5863 5863 5863 5863 5859 5857 5859 5859 5858 5858 5858 5858 5858 5857 5857 5857 5856 5856 5855 5854 5853 5852 5850 5849 5849 5848 5848 5846 5845 5844 5845 5846 5846 5843 5842 5844 5843 5840 5838 5837 5836 5835 5832 5833 5836 5834 5832 5834 5836 5835 5835 5833 5829 5829 5830 5830 5830 5830 5830 5829 5829
5857 5857 5857 5858 5858 5859 5859 5858 5859 5859 5859 5859 5859 5859 5859 5859 5859 5859 5859 5859 5859 5858 5859 5858 5859 5859 5859 5861 5861 5862 5862 5856 5854 5857 5857 5856 5856 5856 5856 5855 5855 5855 5854 5853 5853 5851 5851 5850 5848 5846 5846 5846 5846 5846 5844 5842 5842 5842 5842 5842 5840 5840 5840 5839 5838 5836 5834 5833 5831 5829 5830 5832 5829 5826 5831 5835 5833 5830 5828 5826 5826 5826 5827 5827 5826 5826 5826 5826
5853 5854 5854 5855 5855 5856 5855 5855 5855 5856 5856 5855 5856 5856 5856 5856 5856 5856 5856 5855 5855 5855 5855 5855 5856 5856 5857 5858 5859 5861 5859 5852 5852 5854 5854 5853 5853 5853 5852 5852 5852 5851 5850 5850 5849 5848 5847 5845 5844 5843 5842 5842 5843 5843 5841 5839 5839 5839 5838 5838 5838 5838 5837 5836 5835 5834 5831 5831 5828 5825 5826 5828 5826 5822 5828 5834 5830 5825 5823 5823 5823 5822 5823 5823 5822 5822 5822 5822
5850 5850 5851 5851 5852 5852 5852 5852 5852 5852 5852 5852 5852 5852 5852 5853 5853 5852 5852 5852 5852 5852 5851 5852 5852 5852 5854 5855 5857 5859 5855 5850 5851 5851 5850 5850 5849 5849 5849 5849 5849 5848 5847 5846 5845 5844 5843 5841 5840 5839 5837 5838 5839 5839 5838 5836 5836 5835 5833 5834 5835 5835 5835 5834 5833 5832 5828 5828 5826 5821 5821 5823 5822 5820 5826 5832 5826 5821 5820 5821 5820 5818 5819 5819 5818 5818 5818 5818
5847 5847 5848 5848 5848 5849 5849 5849 5849 5849 5849 5849 5849 5849 5849 5849 5849 5849 5849 5849 5848 5848 5848 5848 5849 5849 5850 5852 5854 5855 5852 5849 5849 5848 5846 5845 5845 5846 5846 5846 5845 5844 5843 5843 5841 5840 5839 5838 5836 5835 5834 5834 5836 5836 5835 5834 5832 5831 5829 5830 5832 5831 5832 5832 5830 5829 5826 5825 5823 5817 5815 5818 5820 5819 5824 5828 5822 5818 5817 5818 5818 5816 5815 5815 5814 5815 5814 5814
5844 5844 5844 5845 5845 5846 5846 5846 5846 5846 5846 5845 5845 5845 5845 5846 5846 5846 5846 5845 5845 5845 5845 5844 5845 5846 5846 5849 5852 5851 5849 5848 5847 5844 5842 5841 5842 5843 5843 5842 5841 5840 5840 5839 5837 5836 5835 5834 5832 5831 5830 5829 5831 5832 5831 5831 5828 5827 5825 5825 5829 5828 5829 5831 5827 5826 5823 5821 5819 5813 5808 5813 5819 5820 5822 5822 5817 5814 5814 5815 5816 5813 5812 5811 5811 5811 5811 5811
5841 5841 5841 5841 5841 5842 5842 5843 5842 5842 5842 5842 5842 5842 5842 5842 5842 5842 5842 5842 5842 5842 5841 5841 5841 5842 5842 5846 5849 5847 5846 5846 5844 5841 5838 5838 5839 5840 5839 5838 5837 5836 5835 5834 5833 5832 5830 5829 5827 5826 5826 5825 5827 5827 5827 5826 5823 5824 5822 5820 5823 5823 5826 5829 5824 5822 5821 5817 5816 5809 5801 5807 5816 5818 5820 5819 5812 5810 5810 5810 5811 5810 5809 5808 5808 5808 5808 5808
5837 5837 5837 5837 5838 5838 5838 5839 5839 5839 5838 5838 5838 5838 5838 5838 5838 5839 5838 5838 5838 5838 5838 5837 5837 5837 5838 5843 5845 5843 5843 5842 5840 5838 5836 5836 5836 5836 5836 5835 5833 5832 5831 5830 5829 5828 5826 5825 5823 5822 5822 5822 5822 5823 5823 5821 5818 5821 5818 5816 5818 5816 5820 5826 5821 5818 5818 5815 5812 5805 5796 5800 5811 5814 5817 5815 5809 5807 5806 5805 5806 5807 5808 5806 5806 5805 5804 5806
5833 5833 5833 5833 5834 5834 5834 5835 5835 5834 5834 5834 5834 5834 5834 5834 5834 5834 5834 5834 5833 5833 5833 5833 5833 5832 5833 5838 5841 5840 5839 5837 5835 5834 5834 5834 5833 5833 5833 5831 5829 5827 5826 5825 5824 5823 5822 5820 5818 5817 5817 5818 5819 5819 5819 5814 5813 5818 5814 5812 5813 5809 5810 5818 5819 5816 5816 5813 5809 5801 5792 5794 5804 5809 5812 5810 5806 5804 5801 5801 5802 5803 5805 5803 5801 5801 5800 5801
5828 5829 5829 5829 5829 5829 5830 5830 5830 5830 5829 5829 5829 5829 5829 5829 5829 5829 5829 5830 5829 5828 5828 5828 5829 5827 5828 5833 5836 5835 5835 5833 5831 5831 5831 5831 5830 5830 5828 5826 5825 5823 5822 5821 5820 5819 5818 5815 5813 5813 5813 5814 5815 5817 5815 5808 5809 5815 5810 5804 5806 5803 5801 5807 5815 5817 5814 5808 5803 5797 5789 5789 5798 5803 5805 5805 5803 5800 5798 5799 5799 5799 5800 5799 5797 5795 5794 5794
5824 5824 5824 5824 5824 5825 5825 5825 5825 5825 5825 5825 5825 5824 5824 5824 5824 5824 5824 5825 5824 5824 5824 5824 5824 5823 5823 5827 5830 5831 5830 5828 5827 5827 5828 5828 5827 5826 5824 5822 5821 5819 5818 5817 5816 5815 5813 5811 5809 5808 5809 5810 5812 5814 5809 5803 5805 5809 5805 5799 5797 5798 5796 5798 5806 5813 5812 5803 5796 5792 5785 5785 5793 5796 5798 5799 5798 5796 5795 5796 5796 5796 5796 5794 5793 5790 5789 5789
5819 5819 5819 5820 5820 5819 5819 5820 5820 5820 5820 5820 5820 5819 5819 5819 5819 5819 5819 5819 5819 5819 5819 5819 5819 5817 5818 5821 5823 5824 5823 5822 5823 5823 5824 5824 5823 5821 5819 5818 5816 5815 5814 5813 5812 5811 5809 5806 5804 5804 5805 5808 5810 5809 5803 5800 5801 5800 5798 5796 5792 5793 5793 5793 5799 5804 5804 5799 5792 5786 5781 5782 5787 5789 5792 5795 5794 5790 5792 5794 5792 5792 5792 5790 5789 5787 5787 5787
5814 5814 5815 5815 5815 5814 5814 5814 5814 5815 5815 5814 5814 5814 5814 5813 5813 5813 5813 5813 5814 5814 5813 5814 5815 5813 5813 5816 5816 5816 5816 5817 5818 5819 5820 5820 5819 5816 5815 5813 5812 5811 5810 5810 5809 5806 5804 5802 5800 5800 5803 5806 5805 5802 5797 5796 5796 5793 5791 5790 5788 5788 5788 5790 5794 5795 5794 5789 5784 5782 5780 5778 5781 5784 5787 5790 5790 5787 5788 5791 5789 5788 5787 5785 5784 5785 5785 5784
5810 5810 5810 5810 5810 5810 5809 5809 5809 5809 5809 5809 5808 5808 5808 5808 5808 5808 5808 5808 5808 5808 5808 5808 5808 5808 5809 5810 5809 5808 5809 5810 5812 5814 5815 5815 5813 5811 5810 5809 5808 5807 5807 5807 5803 5801 5801 5797 5795 5799 5802 5801 5798 5794 5793 5792 5791 5788 5786 5785 5784 5784 5784 5788 5789 5788 5788 5779 5772 5776 5777 5774 5776 5779 5781 5784 5786 5785 5784 5784 5784 5784 5782 5780 5780 5781 5782 5780
5804 5805 5805 5805 5805 5805 5805 5804 5804 5804 5804 5804 5803 5803 5802 5802 5802 5801 5802 5802 5803 5803 5803 5803 5802 5802 5805 5804 5802 5802 5802 5804 5806 5808 5808 5808 5807 5806 5805 5804 5803 5803 5803 5801 5798 5797 5795 5790 5792 5798 5797 5794 5791 5790 5789 5788 5786 5784 5782 5781 5781 5780 5779 5782 5782 5782 5783 5773 5766 5769 5768 5768 5771 5773 5776 5778 5780 5783 5782 5777 5777 5779 5779 5778 5777 5777 5776 5776
5799 5799 5800 5800 5800 5800 5800 5799 5799 5799 5799 5799 5798 5797 5797 5796 5796 5795 5795 5796 5799 5800 5797 5798 5797 5797 5799 5797 5796 5797 5796 5798 5801 5802 5801 5800 5800 5800 5799 5799 5798 5798 5797 5796 5795 5793 5788 5785 5790 5793 5790 5787 5786 5785 5784 5782 5781 5780 5779 5778 5776 5777 5775 5775 5776 5777 5776 5769 5765 5765 5761 5760 5764 5765 5769 5773 5775 5778 5778 5773 5770 5772 5775 5775 5774 5773 5771 5770
5793 5794 5794 5794 5794 5794 5794 5794 5794 5794 5793 5793 5793 5792 5791 5791 5790 5789 5788 5787 5791 5795 5794 5793 5792 5791 5792 5790 5790 5792 5792 5794 5795 5795 5795 5793 5793 5794 5793 5793 5792 5792 5791 5792 5791 5787 5782 5783 5787 5786 5783 5782 5781 5779 5778 5777 5777 5777 5776 5773 5771 5773 5771 5768 5770 5770 5769 5767 5763 5761 5757 5754 5756 5758 5761 5767 5773 5773 5772 5770 5767 5766 5769 5771 5770 5769 5768 5766
5788 5788 5788 5789 5789 5789 5789 5789 5789 5788 5788 5788 5787 5787 5786 5785 5785 5784 5783 5781 5781 5787 5790 5789 5787 5785 5785 5785 5785 5786 5787 5788 5788 5787 5787 5786 5786 5786 5785 5786 5785 5785 5787 5787 5785 5781 5779 5780 5781 5780 5778 5777 5775 5773 5773 5772 5774 5773 5771 5768 5768 5770 5768 5764 5764 5763 5763 5763 5761 5759 5753 5749 5750 5752 5753 5761 5768 5768 5767 5766 5765 5765 5765 5764 5764 5765 5765 5764
5781 5782 5782 5783 5782 5783 5783 5783 5783 5783 5782 5782 5781 5781 5780 5780 5780 5779 5778 5776 5774 5778 5781 5782 5782 5780 5780 5780 5781 5782 5782 5781 5781 5780 5779 5778 5778 5778 5778 5778 5777 5779 5780 5779 5778 5776 5776 5777 5775 5775 5773 5771 5769 5769 5768 5767 5767 5767 5765 5765 5765 5765 5763 5761 5761 5758 5756 5756 5757 5756 5751 5745 5745 5746 5748 5754 5760 5761 5760 5760 5761 5762 5762 5760 5757 5757 5759 5760
5774 5775 5775 5776 5776 5776 5776 5776 5776 5776 5776 5776 5775 5775 5774 5775 5775 5774 5773 5770 5769 5770 5771 5772 5774 5775 5776 5777 5776 5777 5776 5775 5775 5774 5773 5772 5772 5771 5771 5770 5770 5772 5772 5771 5770 5769 5771 5773 5770 5769 5768 5765 5764 5764 5764 5761 5760 5761 5761 5761 5760 5759 5758 5757 5756 5754 5752 5751 5750 5751 5748 5742 5739 5742 5746 5748 5750 5752 5751 5752 5754 5755 5756 5757 5754 5753 5751 5751
5768 5768 5768 5769 5769 5770 5770 5770 5770 5770 5770 5770 5770 5769 5769 5769 5769 5768 5768 5766 5764 5763 5762 5762 5766 5770 5772 5772 5771 5772 5771 5769 5769 5768 5767 5766 5766 5766 5764 5764 5764 5764 5764 5763 5762 5764 5766 5765 5763 5763 5762 5759 5759 5759 5757 5755 5754 5755 5756 5754 5753 5753 5753 5752 5751 5749 5748 5747 5746 5744 5743 5740 5736 5737 5741 5741 5741 5742 5740 5742 5745 5744 5746 5748 5749 5750 5748 5744
5762 5762 5762 5762 5763 5764 5764 5764 5764 5764 5764 5764 5764 5763 5763 5763 5763 5763 5763 5761 5758 5756 5755 5756 5759 5763 5765 5765 5765 5766 5765 5764 5763 5761 5761 5759 5759 5759 5758 5758 5757 5756 5757 5755 5756 5758 5758 5757 5757 5756 5755 5755 5755 5753 5751 5749 5748 5749 5749 5748 5747 5747 5746 5746 5745 5744 5742 5741 5741 5740 5740 5738 5735 5733 5735 5736 5735 5734 5734 5736 5735 5734 5736 5738 5739 5741 5741 5739
5756 5756 5756 5756 5757 5758 5758 5758 5757 5758 5759 5759 5758 5758 5758 5757 5757 5758 5757 5754 5752 5750 5750 5753 5755 5756 5757 5757 5759 5760 5759 5759 5758 5756 5755 5753 5752 5753 5752 5751 5751 5750 5750 5749 5750 5752 5750 5750 5750 5749 5749 5750 5749 5747 5745 5745 5743 5743 5742 5742 5741 5739 5739 5739 5737 5736 5735 5734 5735 5736 5736 5734 5733 5733 5732 5732 5731 5729 5730 5732 5730 5727 5728 5729 5730 5730 5731 5731
5751 5751 5750 5751 5752 5752 5753 5752 5751 5752 5753 5753 5753 5752 5753 5752 5752 5753 5749 5746 5746 5746 5748 5749 5748 5749 5750 5750 5752 5752 5752 5752 5751 5750 5749 5748 5748 5747 5746 5745 5744 5744 5743 5742 5744 5745 5744 5744 5743 5743 5743 5742 5742 5740 5740 5739 5737 5737 5736 5735 5734 5732 5732 5730 5729 5728 5726 5726 5731 5733 5731 5730 5729 5730 5728 5727 5727 5726 5727 5728 5727 5724 5721 5721 5721 5721 5721 5722
5745 5745 5745 5746 5747 5747 5747 5746 5745 5746 5747 5746 5747 5747 5747 5747 5748 5746 5741 5741 5742 5743 5745 5744 5741 5743 5744 5743 5744 5744 5744 5744 5744 5743 5742 5742 5742 5742 5742 5741 5738 5738 5737 5736 5737 5737 5737 5737 5737 5737 5737 5736 5735 5734 5734 5733 5732 5731 5730 5729 5727 5726 5725 5722 5721 5720 5717 5720 5727 5727 5724 5724 5724 5726 5725 5723 5723 5722 5723 5724 5724 5721 5718 5717 5717 5715 5714 5712
5739 5739 5740 5741 5741 5742 5741 5740 5739 5740 5740 5740 5740 5741 5741 5740 5741 5740 5738 5739 5738 5738 5741 5740 5737 5738 5737 5736 5737 5737 5736 5736 5736 5736 5735 5735 5736 5736 5736 5736 5734 5733 5731 5731 5730 5729 5730 5731 5730 5730 5731 5730 5728 5727 5727 5727 5726 5724 5723 5722 5719 5718 5717 5713 5712 5711 5710 5716 5721 5719 5715 5712 5716 5722 5722 5721 5722 5721 5720 5719 5718 5717 5716 5714 5714 5713 5710 5706
5733 5734 5734 5735 5736 5736 5735 5734 5733 5733 5733 5733 5733 5733 5734 5734 5735 5736 5735 5735 5733 5732 5735 5733 5731 5731 5731 5731 5731 5729 5729 5728 5727 5727 5727 5727 5727 5728 5728 5728 5729 5727 5726 5725 5724 5722 5723 5725 5725 5723 5722 5723 5721 5721 5720 5719 5718 5716 5714 5714 5711 5710 5707 5703 5704 5704 5704 5709 5712 5709 5705 5701 5707 5717 5717 5718 5720 5719 5718 5716 5714 5712 5710 5709 5708 5707 5704 5701
5726 5727 5727 5728 5729 5729 5728 5727 5726 5726 5725 5725 5725 5725 5726 5728 5732 5731 5730 5730 5729 5727 5728 5727 5726 5725 5725 5725 5724 5723 5722 5719 5718 5719 5719 5719 5719 5720 5721 5721 5721 5720 5718 5717 5717 5716 5715 5717 5721 5717 5713 5717 5717 5714 5713 5711 5710 5709 5708 5705 5702 5703 5700 5695 5696 5696 5696 5699 5700 5698 5694 5691 5700 5710 5713 5713 5714 5713 5713 5713 5711 5707 5704 5702 5700 5699 5696 5694
5720 5720 5720 5721 5721 5721 5721 5719 5718 5718 5717 5717 5717 5716 5718 5723 5726 5724 5723 5723 5721 5720 5721 5721 5721 5719 5719 5720 5718 5718 5716 5711 5711 5712 5711 5712 5712 5714 5715 5715 5716 5715 5712 5709 5708 5709 5705 5707 5714 5710 5705 5709 5710 5708 5706 5704 5702 5702 5701 5699 5697 5698 5696 5690 5688 5689 5689 5686 5685 5686 5683 5682 5691 5701 5707 5710 5708 5709 5709 5707 5707 5702 5698 5696 5691 5690 5688 5686
5712 5713 5713 5714 5714 5713 5713 5712 5711 5710 5710 5709 5707 5708 5714 5719 5719 5717 5716 5716 5713 5713 5713 5713 5714 5714 5712 5713 5712 5712 5710 5706 5705 5704 5703 5704 5703 5706 5709 5710 5710 5709 5706 5703 5700 5699 5696 5697 5706 5706 5700 5700 5700 5699 5699 5697 5695 5693 5692 5693 5693 5690 5688 5684 5679 5680 5682 5673 5671 5677 5674 5675 5681 5685 5698 5706 5702 5704 5704 5700 5700 5696 5693 5690 5685 5683 5681 5678
5704 5705 5706 5707 5707 5705 5705 5704 5703 5702 5702 5700 5698 5701 5709 5711 5710 5710 5710 5709 5707 5706 5704 5703 5705 5706 5704 5704 5705 5706 5703 5699 5698 5697 5697 5696 5694 5697 5701 5702 5702 5701 5700 5697 5691 5689 5686 5686 5697 5701 5694 5689 5690 5690 5690 5690 5688 5683 5682 5686 5687 5681 5679 5678 5670 5668 5670 5661 5660 5667 5667 5671 5673 5673 5688 5698 5694 5696 5696 5692 5691 5689 5686 5682 5677 5674 5672 5668
5697 5697 5699 5700 5699 5696 5696 5696 5694 5694 5693 5690 5689 5695 5701 5703 5704 5705 5703 5702 5700 5698 5697 5695 5695 5696 5695 5696 5698 5698 5695 5692 5691 5689 5688 5688 5686 5689 5693 5692 5692 5693 5692 5689 5684 5680 5677 5673 5680 5692 5690 5681 5680 5683 5683 5684 5682 5675 5673 5677 5677 5672 5670 5670 5663 5658 5658 5652 5648 5654 5656 5660 5665 5669 5680 5687 5688 5691 5687 5681 5681 5678 5676 5673 5667 5663 5660 5657
5688 5689 5691 5693 5691 5688 5688 5687 5686 5686 5683 5682 5684 5688 5692 5695 5697 5696 5695 5694 5692 5690 5689 5688 5687 5686 5686 5688 5689 5688 5687 5684 5682 5680 5680 5679 5678 5681 5683 5681 5682 5683 5682 5680 5676 5673 5671 5663 5662 5677 5684 5674 5669 5674 5677 5679 5676 5669 5666 5665 5666 5665 5663 5661 5656 5652 5650 5643 5639 5641 5641 5644 5653 5662 5669 5674 5680 5685 5678 5672 5670 5666 5663 5659 5654 5651 5649 5649
5680 5681 5684 5686 5683 5680 5680 5678 5677 5677 5674 5675 5680 5682 5683 5685 5687 5689 5687 5685 5683 5681 5680 5680 5680 5678 5678 5680 5680 5679 5678 5675 5674 5673 5671 5671 5671 5673 5675 5673 5674 5674 5671 5669 5668 5665 5663 5656 5650 5660 5670 5665 5662 5666 5670 5672 5668 5662 5658 5656 5656 5656 5654 5649 5645 5646 5646 5637 5632 5631 5627 5631 5643 5651 5657 5664 5669 5671 5666 5660 5656 5651 5648 5645 5642 5642 5642 5642
5672 5674 5677 5678 5675 5672 5671 5668 5668 5670 5667 5668 5673 5675 5674 5675 5678 5680 5679 5675 5673 5672 5670 5670 5671 5670 5670 5671 5671 5671 5668 5665 5666 5665 5663 5664 5665 5665 5667 5669 5667 5665 5662 5660 5659 5657 5654 5648 5642 5644 5651 5654 5657 5661 5661 5658 5657 5654 5649 5647 5648 5647 5645 5638 5632 5638 5641 5631 5627 5625 5616 5621 5636 5642 5646 5653 5657 5655 5648 5643 5641 5638 5637 5637 5637 5636 5635 5635
5665 5666 5667 5668 5666 5664 5662 5660 5662 5663 5660 5662 5667 5667 5665 5665 5668 5670 5670 5668 5664 5662 5661 5661 5661 5661 5661 5661 5662 5661 5658 5656 5657 5657 5655 5657 5658 5657 5660 5662 5658 5656 5654 5651 5650 5650 5646 5640 5635 5634 5638 5642 5647 5653 5652 5647 5645 5644 5639 5639 5640 5638 5637 5631 5623 5628 5630 5623 5622 5620 5608 5610 5626 5635 5638 5640 5642 5639 5629 5628 5632 5630 5629 5631 5631 5629 5628 5627
5657 5657 5657 5658 5656 5654 5652 5652 5656 5655 5652 5656 5658 5657 5655 5655 5657 5661 5662 5659 5655 5653 5652 5652 5652 5652 5651 5652 5652 5650 5649 5646 5645 5648 5648 5647 5649 5651 5654 5653 5650 5648 5646 5642 5641 5642 5638 5632 5628 5627 5628 5629 5632 5639 5643 5640 5636 5632 5629 5632 5631 5627 5628 5625 5619 5620 5617 5612 5615 5612 5601 5603 5614 5623 5626 5625 5624 5623 5617 5619 5624 5622 5620 5621 5620 5621 5621 5619
5647 5647 5647 5647 5646 5644 5643 5645 5648 5646 5644 5647 5647 5646 5647 5646 5648 5653 5653 5649 5646 5644 5644 5642 5642 5642 5642 5643 5642 5641 5642 5637 5633 5639 5641 5638 5639 5643 5645 5643 5641 5641 5639 5635 5634 5633 5630 5626 5623 5620 5618 5617 5620 5625 5629 5631 5629 5622 5620 5622 5621 5620 5620 5616 5614 5613 5605 5603 5609 5602 5592 5597 5606 5609 5610 5609 5609 5610 5609 5610 5612 5612 5611 5611 5610 5611 5611 5610
5637 5637 5637 5637 5636 5635 5636 5639 5639 5636 5636 5638 5636 5638 5639 5638 5641 5644 5642 5639 5638 5637 5635 5633 5632 5633 5633 5633 5633 5632 5633 5630 5625 5627 5630 5630 5630 5631 5634 5634 5632 5631 5629 5627 5626 5624 5620 5617 5617 5614 5609 5607 5610 5613 5616 5620 5618 5612 5610 5612 5611 5612 5611 5607 5606 5603 5595 5596 5600 5593 5585 5590 5598 5598 5595 5597 5599 5600 5600 5599 5600 5601 5600 5600 5600 5599 5599 5598
5628 5628 5628 5628 5626 5626 5629 5631 5628 5626 5629 5629 5626 5628 5630 5630 5633 5634 5632 5631 5630 5629 5626 5624 5624 5624 5623 5624 5624 5622 5623 5623 5619 5616 5619 5621 5621 5621 5622 5623 5623 5621 5620 5618 5618 5615 5609 5606 5608 5607 5602 5601 5602 5603 5608 5609 5605 5601 5601 5602 5603 5603 5602 5599 5594 5590 5590 5588 5584 5584 5583 5581 5583 5586 5584 5586 5589 5589 5588 5588 5587 5588 5588 5587 5588 5587 5587 5586
5619 5619 5620 5619 5618 5619 5622 5622 5619 5617 5619 5618 5616 5618 5621 5622 5623 5623 5623 5623 5621 5619 5617 5615 5616 5616 5614 5616 5615 5610 5611 5614 5611 5609 5610 5611 5611 5612 5612 5612 5611 5611 5612 5610 5607 5606 5600 5595 5598 5599 5594 5594 5596 5595 5598 5598 5592 5591 5591 5592 5594 5594 5593 5590 5584 5582 5584 5576 5568 5575 5580 5572 5569 5572 5572 5575 5578 5576 5576 5577 5577 5577 5577 5577 5576 5576 5575 5574
5611 5611 5611 5610 5610 5613 5614 5613 5612 5610 5609 5608 5607 5608 5611 5613 5613 5613 5613 5611 5609 5609 5608 5605 5608 5609 5607 5607 5603 5598 5600 5602 5601 5603 5603 5600 5601 5602 5602 5603 5601 5601 5603 5600 5597 5597 5590 5584 5589 5590 5584 5585 5587 5586 5588 5586 5581 5580 5580 5579 5581 5582 5583 5581 5578 5577 5575 5565 5560 5567 5571 5564 5558 5558 5561 5564 5566 5566 5566 5567 5567 5567 5567 5566 5566 5565 5564 5562
5602 5602 5602 5601 5602 5605 5605 5604 5604 5602 5601 5600 5598 5599 5602 5602 5603 5604 5602 5597 5596 5599 5599 5595 5598 5601 5599 5598 5593 5588 5590 5592 5591 5593 5594 5591 5590 5590 5591 5593 5592 5592 5593 5590 5588 5586 5579 5575 5580 5580 5573 5574 5577 5578 5578 5576 5571 5570 5569 5568 5568 5570 5573 5572 5569 5568 5565 5559 5557 5560 5560 5555 5547 5546 5550 5552 5552 5553 5555 5555 5556 5555 5555 5556 5555 5555 5554 5552
5593 5593 5594 5593 5594 5597 5596 5595 5595 5593 5594 5593 5590 5592 5594 5591 5592 5594 5592 5587 5585 5588 5589 5586 5587 5590 5588 5587 5585 5581 5582 5583 5581 5581 5582 5580 5580 5580 5580 5582 5584 5583 5582 5580 5580 5577 5571 5566 5569 5569 5563 5562 5568 5569 5567 5564 5560 5557 5556 5558 5561 5561 5562 5561 5559 5559 5555 5551 5551 5552 5549 5545 5538 5536 5540 5540 5540 5541 5541 5542 5544 5543 5542 5543 5543 5543 5543 5542
5585 5585 5586 5585 5585 5588 5587 5586 5586 5584 5584 5586 5583 5583 5584 5582 5583 5584 5582 5580 5577 5577 5578 5576 5577 5578 5576 5576 5576 5573 5572 5573 5571 5570 5570 5570 5569 5570 5569 5571 5573 5573 5572 5572 5570 5568 5564 5558 5559 5560 5551 5549 5559 5561 5554 5552 5548 5542 5543 5550 5555 5554 5551 5550 5549 5548 5545 5542 5542 5542 5539 5536 5532 5529 5528 5528 5528 5529 5528 5528 5530 5530 5529 5529 5529 5530 5530 5530
5576 5575 5577 5576 5576 5579 5579 5577 5577 5575 5576 5579 5576 5574 5573 5573 5573 5573 5571 5570 5569 5568 5569 5567 5566 5566 5565 5565 5565 5563 5562 5562 5561 5560 5559 5559 5559 5559 5559 5559 5561 5561 5562 5563 5560 5559 5558 5551 5550 5550 5540 5537 5549 5551 5543 5540 5532 5528 5537 5546 5546 5544 5542 5539 5538 5535 5534 5534 5532 5530 5528 5526 5524 5522 5519 5517 5516 5516 5515 5515 5515 5516 5516 5515 5514 5515 5516 5516